Location: Geroldsau
(48.7259°N, 8.2466°E)
Time: 01:08:19
(UTC+00:00)

USA 267 - Visible Passes

Search period start: 24 October 2021 00:00
Search period end: 03 November 2021 00:00
Orbit: 1099 x 1109 km, 123.0° (Epoch: 22 October)

Date Brightness Start Highest point End Pass type
(mag) Time Alt. Az. Time Alt. Az. Time Alt. Az.
24 Oct 4.2 17:57:16 10° SSE 18:03:28 45° SW 18:09:41 10° WNW visible
24 Oct 5.7 19:46:03 10° SW 19:47:41 11° WSW 19:49:19 10° WSW visible
25 Oct 3.5 17:14:00 10° SE 17:20:31 75° SW 17:27:05 10° WNW visible
25 Oct 5.1 18:59:09 10° S 19:04:15 24° SW 19:09:23 10° WNW visible
26 Oct 4.2 18:14:54 10° SSE 18:21:05 44° SW 18:27:18 10° WNW visible
26 Oct 5.7 20:03:46 10° SW 20:05:18 11° WSW 20:06:50 10° WSW visible
27 Oct 3.4 17:31:37 10° SE 17:38:08 75° SW 17:44:43 10° WNW visible
27 Oct 5.0 19:17:28 12° S 19:21:53 24° SW 19:27:00 10° WNW visible
28 Oct 3.3 16:48:54 10° ESE 16:55:24 74° NNE 17:01:57 10° NW visible
28 Oct 4.1 18:33:31 15° SSE 18:38:42 44° SW 18:44:55 10° WNW visible
28 Oct 5.6 20:21:32 10° SW 20:22:56 11° WSW 20:24:20 10° WSW visible
29 Oct 3.4 17:49:32 12° SE 17:55:45 74° SW 18:02:20 10° WNW visible
29 Oct 5.0 19:36:56 19° SSW 19:39:30 24° SW 19:44:36 10° WNW visible
30 Oct 3.3 17:06:32 10° ESE 17:13:02 74° NNE 17:19:34 10° NW visible
30 Oct 4.1 18:52:54 25° S 18:56:20 44° SW 19:02:32 10° WNW visible
30 Oct 5.6 20:40:16 11° WSW 20:40:33 11° WSW 20:41:50 10° WSW visible
31 Oct 3.4 18:08:49 21° SE 18:13:23 74° SW 18:19:57 10° WNW visible
31 Oct 4.9 19:56:11 23° SW 19:57:08 24° SW 20:02:13 10° WNW visible
01 Nov 3.2 17:24:42 13° ESE 17:30:39 74° NNE 17:37:11 10° NW visible
01 Nov 4.0 19:12:04 36° S 19:13:57 44° SW 19:20:09 10° WNW visible
02 Nov 3.5 16:41:47 10° E 16:48:06 55° NNE 16:54:27 10° WNW visible
02 Nov 3.3 18:27:55 34° SE 18:31:00 74° SW 18:37:34 10° WNW visible
02 Nov 4.9 20:15:17 23° WSW 20:15:17 23° WSW 20:19:49 10° WNW visible
